STARLINK-2173

decayed
NORAD ID: 48560 Int'l Des: 2021-041 Owner: SPXS Country: US Constellation: starlink
LEOCIRCULAR
グループ

STARLINK-2173について

説明を読み込み中...

高度履歴

Altitude vs Time

uPlot chart will show altitude changes over time

軌道要素

1 48560U 21041H 22034.91873352 .22149250 12086-4 38946-2 0 9998
2 48560 53.0233 319.2123 0005339 231.3147 129.1700 16.31969309 40936
Epoch: Feb 3, 2022 • Age: 31694 hours

現在のステータス

Position data unavailable
打ち上げ日 May 15, 2021
運用期間 4.3 years
落下予定日 Feb 4, 2022
タイプ internet

技術仕様

分類 Payload
質量 260.00 kg
乾燥質量 248.00 kg
総質量 260.00 kg
長さ 0.20 m
直径 2.80 m
スパン 9.00 m
形状 Box + pan
製造者 SPXS
バスタイプ Starlink
フェーズステータス Reentered
所有者/国 SPXS/US

大規模コンステレーション

Loading constellations...